Location: Peebles
(55.6412°N, 3.1714°W)
Time: 21:55:38
(UTC+00:00)

FENGYUN 1C DEB - Pass Details

Date: 09 February 2023
Orbit: 707 x 862 km, 98.5° (Epoch: 07 November)

Event Time Altitude Azimuth Distance (km) Brightness Sun altitude
Rises 19:38:51 0° 171° (S) 3,395 ? -22.1°
Reaches altitude 10° 19:41:14 10° 175° (S) 2,470 ? -22.4°
Maximum altitude 19:46:43 66° 257° (WSW) 930 ? -23.2°
Drops below altitude 10° 19:52:13 10° 340° (NNW) 2,475 ? -24.0°
Sets 19:54:36 0° 343° (NNW) 3,402 ? -24.3°
